Location: Windsor
(43.2292°N, 89.3015°W)
Time: 07:59:19
(UTC+00:00)

DIWATA 2B (PO-101) - Pass Details

Date: 02 July 2022
Orbit: 583 x 599 km, 98.0° (Epoch: 15 August)

Event Time Altitude Azimuth Distance (km) Brightness Sun altitude
Exits shadow 06:37:31 - 104° (ESE) 2,013 ? -23.2°
Reaches altitude 10° 06:37:49 10° 101° (ESE) 1,939 ? -23.2°
Maximum altitude 06:40:23 16° 63° (ENE) 1,585 ? -23.1°
Drops below altitude 10° 06:42:58 10° 26° (NNE) 1,948 ? -23.0°
Sets 06:45:50 0° 5° (N) 2,856 ? -23.0°
